Volver al catálogo

STARLINK-2346

ActivoComunicacionesVLEO
NORAD 47887·PAYLOAD·🇺🇸 United States

Lanzado Mar 14, 2021 desde Cape Canaveral Space Force Station

Loading…

Próximos Pases (próximas 24 horas)

TLE

ActualizadoSource: CelesTrak SupGP

Época: Sep 14, 2026, 21:50 UTC

1 47887C 21021AD  26257.91020833 -.00011294  00000+0 -36327-3 0  2577
2 47887  53.1573 120.3904 0001251  80.5625   0.5257 15.31700619    17

Sigue STARLINK-2346 en tiempo real con AllMySat

Download on the App Store